N1PLV Weather Reports


Display with metric or nautical units.
time (UTC)temp
F
wind
direction
speed
MPH
gust
MPH
rain 1hr
in
rain 24hr
in
rain mn
in
humidity
%
barometer
mb
20260503184456 62 300 8.0 14.0 0.00 0.07 0.00 45 1018.0
20260503182956 61 299 9.0 17.0 0.00 0.07 0.00 47 1018.2
20260503175957 61 313 7.0 17.0 0.00 0.08 0.00 43 1018.1
20260503174456 60 294 9.0 15.0 0.00 0.08 0.00 45 1018.1
20260503172956 60 322 7.0 15.0 0.00 0.08 0.00 47 1018.3
20260503171456 60 318 7.0 15.0 0.00 0.08 0.00 45 1018.2
20260503081456 52 323 5.0 13.0 0.00 0.41 0.00 73 1013.4
20260503071456 53 301 5.0 13.0 0.00 0.41 0.00 75 1012.6
20260503054456 54 296 4.0 11.0 0.00 0.41 0.00 74 1012.0
20260503052956 54 342 3.0 10.0 0.00 0.41 0.00 71 1011.6
20260503051456 55 330 7.0 18.0 0.00 0.41 0.00 73 1011.9
20260503045956 55 335 8.0 16.0 0.00 0.41 0.00 72 1012.0
20260503044456 55 331 8.0 14.0 0.00 0.41 0.00 73 1012.2
20260503041456 54 346 8.0 16.0 0.00 0.41 0.00 73 1012.0
20260503035956 54 320 9.0 16.0 0.00 0.41 0.41 71 1012.0
20260503032956 54 17 11.0 18.0 0.00 0.41 0.41 71 1011.9
20260503031456 54 355 11.0 21.0 0.00 0.41 0.41 71 1012.0
20260503025956 54 318 10.0 18.0 0.00 0.42 0.41 74 1012.1
20260503024456 54 360 9.0 15.0 0.00 0.42 0.41 76 1012.1
20260503022956 54 332 9.0 16.0 0.00 0.42 0.41 77 1012.1
20260503021456 54 355 11.0 20.0 0.00 0.42 0.41 80 1011.9
20260503015955 54 338 11.0 18.0 0.00 0.42 0.41 81 1011.9
20260503014456 54 345 9.0 17.0 0.00 0.42 0.41 83 1011.8
20260503012956 53 337 8.0 14.0 0.00 0.42 0.41 84 1012.2
20260503011455 53 24 9.0 16.0 0.01 0.42 0.41 84 1012.1
20260503005956 53 5 8.0 16.0 0.01 0.42 0.41 85 1011.6
20260503004456 53 355 8.0 16.0 0.01 0.42 0.41 84 1011.8
20260503001456 52 348 6.0 14.0 0.00 0.41 0.40 84 1011.7
20260502235956 52 5 9.0 15.0 0.00 0.41 0.40 84 1011.2
20260502234456 52 338 10.0 16.0 0.00 0.41 0.40 84 1011.0
20260502231455 52 360 12.0 19.0 0.01 0.41 0.40 85 1010.4
20260502222956 52 344 13.0 21.0 0.02 0.41 0.40 88 1010.7
20260502214456 52 5 13.0 20.0 0.04 0.40 0.39 88 1010.7
20260502212956 52 80 10.0 20.0 0.03 0.39 0.38 88 1010.7
20260502211455 52 47 10.0 17.0 0.02 0.38 0.37 87 1010.7
20260502205956 52 331 10.0 18.0 0.01 0.37 0.36 86 1010.6
20260502204455 52 355 12.0 19.0 0.00 0.36 0.35 85 1010.7
20260502201455 53 30 13.0 19.0 0.00 0.36 0.35 87 1010.3
20260502195956 53 330 11.0 19.0 0.00 0.36 0.35 87 1010.5
20260502194455 53 17 12.0 20.0 0.00 0.36 0.35 88 1010.9
20260502192956 53 360 14.0 23.0 0.00 0.36 0.35 89 1010.9
20260502191455 53 329 15.0 21.0 0.00 0.36 0.35 90 1011.0
20260502185956 53 331 15.0 22.0 0.01 0.36 0.35 90 1011.4